Regional Weather Roundup
Issued by NWS Newport/Morehead, NC

Home | Current Version | Previous Version | Text Only | Print | Product List | Glossary On
Versions: 1 2 3 4 5 6 7 8 9 10 11 12 13 14 15 16 17 18 19 20 21 22 23 24 25 26 27 28 29 30 31 32 33 34 35 36 37 38 39 40 41 42 43 44 45 46 47 48 49 50
000
ASUS42 KMHX 232026
RWRMHX
WEATHER ROUNDUP FOR EASTERN NORTH CAROLINA
NATIONAL WEATHER SERVICE NEWPORT/MOREHEAD CITY NC
300 PM EST THU NOV 23 2017

NOTE: "FAIR" INDICATES FEW OR NO CLOUDS BELOW 12,000 FEET
WITH NO SIGNIFICANT WEATHER AND/OR OBSTRUCTIONS TO VISIBILITY

NCZ015>017-031-032-045>047-102-103-232100-
NORTH COAST

CITY           SKY/WX    TMP DP  RH WIND       PRES   REMARKS
EDENTON        CLOUDY    48  36  63 CALM      30.09F
ELIZABETH CITY PTSUNNY   47  36  65 NE7       30.08F
KITTY HAWK     CLOUDY    45  35  67 CALM      30.07F
MANTEO         CLOUDY    46  36  69 NE8       30.08F

$$

NCZ045>047-081-094-103-104-232100-
CENTRAL COAST

CITY           SKY/WX    TMP DP  RH WIND       PRES   REMARKS
FRISCO         PTSUNNY   50  42  74 N8G17     30.06S

$$

NCZ095-097-098-100-101-232100-
SOUTHERN COAST

CITY           SKY/WX    TMP DP  RH WIND       PRES   REMARKS
BEAUFORT       CLOUDY    50  42  74 N10       30.05S
CEDAR ISLAND   NOT AVBL
JACKSONVILLE   CLOUDY    49  40  71 N9        30.05F
PINEY ISLAND   NOT AVBL
WILMINGTON     CLOUDY    50  39  66 N7        30.05F


$$

NCZ011>013-027>030-043-044-078>080-089-090>093-098-232100-
COASTAL PLAIN

CITY           SKY/WX    TMP DP  RH WIND       PRES   REMARKS
AHOSKIE        CLOUDY    45  30  56 CALM      30.09S
CLINTON        CLOUDY    48  37  64 NE3       30.07F
ELIZABETHTOWN  NOT AVBL
GOLDSBORO      SUNNY     48  33  56 N6        30.05F
GREENVILLE     PTSUNNY   48  34  57 N7        30.08F
HAVELOCK       NOT AVBL
KENANSVILLE    CLOUDY    46  34  61 N8        30.07S
KINSTON        CLOUDY    48  36  61 N7        30.07F
NEW BERN       CLOUDY    47  39  74 N9        30.07F
RICHLANDS      CLOUDY    48  38  68 N8        30.06F
ROCKY MOUNT    PTSUNNY   47  31  53 CALM      30.07F
WASHINGTON     CLOUDY    47  35  63 NE6       30.07F
WHITEVILLE     CLOUDY    47  36  64 NE3       30.04F

$$

AMZ130-135-150-152-154-156-158-170-250-252-270-ANZ085-086-088-633-658-670-232100-
MARINE OBSERVATIONS

STATION/POSITION TIME  TEMP    WIND        PRES    WAVE   SWELL
                       AIR SEA DIR/SP/G            HT/PER HT/PER
                 (UTC) (F)     (DEG/KT/KT) (MB)    (FT/S) (FT/S)
CHESAPEAKE LIGHT NOT AVBL
64 E VA BEACH    1950   46 60  340/ 10/ 14 1018.6    7/10   7/10
DUCK             2000   45 58  350/  9/ 11 1018.1
2 E DUCK         2000      60                N/A     4/10   2/11
OREGON INLET     2000   47 58  360/  9/ 13 1018.1
13E OREGON INLT  1948      62                N/A     5/ 8   5/ 8
HATTERAS CG      2000   50 58   10/ 16/ 19 1017.5
DIAMOND BUOY     2010   55 72   10/ 17/ 21 1017.4
CAPE LOOKOUT     2000           10/ 14/ 18 1017.4
BEAUFORT LAB     2000   50 59   20/ 10/ 13 1017.5
30 SE NEW RVR IN 2008   55 67   60/ 14/ 19 1016.8
30 SE NEW RVR IN 2000      67                N/A     6/ 9   2/11
27 SE WRIGHTSVLE 2008   56 70   40/ 17/ 25 1016.6
5 SE WRIGHTSVLE  2008   51 63   20/ 10/ 16 1017.1
225 S CAPE HAT   1950   72 76   80/ 14/ 17 1012.8    7/ 9   7/ 9
41 SE CHARLESTON 2010   65 75   20/ 17/ 23 1013.7

$$



USA.gov is the U.S. government's official web portal to all federal, state and local government web resources and services.